When you browse on this site, cookies collect data to enhance your experience and personalize the content and advertising you see.
Visit our Privacy Policy to learn more. By continuing to use the site, you agree to this use of cookies and data.
  • In Denmark
  • List of Countries
  • For 7 days
  • Water Temperature
  • Satellite Maps
  • Weather Map
  • Weather Widgets
  • user-avatar
    Login

    Hourly Weather Edinburgh

    Today, 17 February, Sunday

    Time Temperature Precipitation Wind Pressure Humidity
    00:00 +10°C° 0 mm 7 mps 753 mmHg 84%
    01:00 +10°C° 0 mm 7 mps 753 mmHg 83%
    02:00 +10°C° 0 mm 7 mps 752 mmHg 83%
    03:00 +10°C° 0 mm 7 mps 752 mmHg 82%
    04:00 +10°C° 0 mm 7 mps 751 mmHg 81%
    05:00 +9°C° 0 mm 7 mps 751 mmHg 80%
    06:00 +9°C° 0 mm 8 mps 750 mmHg 79%
    07:00 +9°C° 0.1 mm 8 mps 750 mmHg 80%
    08:00 +10°C° 0.1 mm 8 mps 750 mmHg 80%
    09:00 +10°C° 0.1 mm 8 mps 749 mmHg 81%
    10:00 +10°C° 0.3 mm 8 mps 750 mmHg 80%
    11:00 +10°C° 0.3 mm 8 mps 750 mmHg 79%
    12:00 +10°C° 0.3 mm 7 mps 750 mmHg 79%
    13:00 +9°C° 0 mm 7 mps 750 mmHg 75%
    14:00 +9°C° 0 mm 7 mps 750 mmHg 72%
    15:00 +9°C° 0 mm 7 mps 750 mmHg 69%
    16:00 +8°C° 0 mm 6 mps 750 mmHg 72%
    17:00 +8°C° 0 mm 6 mps 750 mmHg 75%
    18:00 +7°C° 0 mm 5 mps 750 mmHg 79%
    19:00 +7°C° 0 mm 6 mps 750 mmHg 79%
    20:00 +5°C° 0 mm 6 mps 750 mmHg 80%
    21:00 +5°C° 0 mm 7 mps 750 mmHg 81%
    22:00 +5°C° 0 mm 7 mps 750 mmHg 81%
    23:00 +5°C° 0 mm 7 mps 749 mmHg 81%

    Tomorrow, 18 February, Monday

    Time Temperature Precipitation Wind Pressure Humidity
    00:00 +5°C° 0 mm 6 mps 749 mmHg 81%
    01:00 +5°C° 0 mm 7 mps 749 mmHg 80%
    02:00 +5°C° 0 mm 7 mps 749 mmHg 79%
    03:00 +5°C° 0 mm 8 mps 749 mmHg 78%
    04:00 +5°C° 0.1 mm 8 mps 748 mmHg 79%
    05:00 +5°C° 0.1 mm 7 mps 748 mmHg 80%
    06:00 +5°C° 0.1 mm 7 mps 748 mmHg 80%
    07:00 +5°C° 0 mm 7 mps 748 mmHg 80%
    08:00 +5°C° 0 mm 7 mps 749 mmHg 80%
    09:00 +4°C° 0 mm 7 mps 749 mmHg 80%
    10:00 +5°C° 0.1 mm 8 mps 749 mmHg 79%
    11:00 +5°C° 0.1 mm 8 mps 749 mmHg 79%
    12:00 +6°C° 0.1 mm 8 mps 750 mmHg 78%
    13:00 +6°C° 0.3 mm 8 mps 750 mmHg 77%
    14:00 +6°C° 0.3 mm 7 mps 750 mmHg 75%
    15:00 +6°C° 0.3 mm 7 mps 750 mmHg 74%
    16:00 +6°C° 0.4 mm 7 mps 750 mmHg 77%
    17:00 +5°C° 0.4 mm 6 mps 751 mmHg 81%
    18:00 +5°C° 0.4 mm 6 mps 751 mmHg 84%
    19:00 +5°C° 0.1 mm 6 mps 751 mmHg 85%
    20:00 +4°C° 0.1 mm 6 mps 752 mmHg 86%
    21:00 +5°C° 0.1 mm 5 mps 752 mmHg 86%
    22:00 +5°C° 0 mm 5 mps 753 mmHg 87%
    23:00 +5°C° 0 mm 5 mps 753 mmHg 87%

    Day after tomorrow, 19 February, Tuesday

    Time Temperature Precipitation Wind Pressure Humidity
    00:00 +3°C° 0 mm 5 mps 753 mmHg 87%
    01:00 +3°C° 0 mm 5 mps 753 mmHg 86%
    02:00 +3°C° 0 mm 5 mps 754 mmHg 85%
    03:00 +3°C° 0 mm 5 mps 754 mmHg 85%
    04:00 +3°C° 0 mm 5 mps 754 mmHg 84%
    05:00 +3°C° 0 mm 5 mps 754 mmHg 84%
    06:00 +3°C° 0 mm 5 mps 754 mmHg 84%
    07:00 +4°C° 0 mm 4 mps 755 mmHg 84%
    08:00 +4°C° 0 mm 4 mps 755 mmHg 85%
    09:00 +4°C° 0 mm 4 mps 755 mmHg 85%
    10:00 +4°C° 0 mm 4 mps 756 mmHg 83%
    11:00 +5°C° 0 mm 4 mps 756 mmHg 80%
    12:00 +6°C° 0 mm 5 mps 756 mmHg 77%
    13:00 +6°C° 0.2 mm 5 mps 756 mmHg 79%
    14:00 +6°C° 0.2 mm 5 mps 755 mmHg 81%
    15:00 +6°C° 0.2 mm 5 mps 755 mmHg 82%
    16:00 +6°C° 0.2 mm 5 mps 754 mmHg 85%
    17:00 +6°C° 0.2 mm 5 mps 754 mmHg 87%
    18:00 +6°C° 0.2 mm 5 mps 754 mmHg 89%
    19:00 +6°C° 1.1 mm 5 mps 754 mmHg 90%
    20:00 +7°C° 1.1 mm 5 mps 753 mmHg 90%
    21:00 +7°C° 1.1 mm 5 mps 753 mmHg 91%
    22:00 +7°C° 1 mm 5 mps 753 mmHg 91%
    23:00 +7°C° 1 mm 5 mps 753 mmHg 91%

    20 February, Wednesday

    Time Temperature Precipitation Wind Pressure Humidity
    00:00 +7°C° 1 mm 5 mps 753 mmHg 92%
    01:00 +7°C° 1.3 mm 6 mps 752 mmHg 92%
    02:00 +8°C° 1.3 mm 6 mps 752 mmHg 92%
    03:00 +8°C° 1.3 mm 6 mps 752 mmHg 92%
    04:00 +8°C° 1.1 mm 6 mps 752 mmHg 92%
    05:00 +8°C° 1.1 mm 7 mps 752 mmHg 91%
    06:00 +8°C° 1.1 mm 7 mps 752 mmHg 90%
    07:00 +8°C° 0.3 mm 7 mps 752 mmHg 90%
    08:00 +9°C° 0.3 mm 8 mps 752 mmHg 89%
    09:00 +9°C° 0.3 mm 8 mps 752 mmHg 88%
    10:00 +9°C° 0.3 mm 8 mps 752 mmHg 88%
    11:00 +9°C° 0.3 mm 8 mps 752 mmHg 88%
    12:00 +8°C° 0.3 mm 9 mps 753 mmHg 87%
    13:00 +9°C° 0.7 mm 8 mps 752 mmHg 87%
    14:00 +9°C° 0.7 mm 8 mps 752 mmHg 87%
    15:00 +10°C° 0.7 mm 8 mps 752 mmHg 88%
    16:00 +9°C° 0.1 mm 8 mps 753 mmHg 87%
    17:00 +9°C° 0.1 mm 7 mps 753 mmHg 87%
    18:00 +9°C° 0.1 mm 7 mps 754 mmHg 86%
    19:00 +9°C° 0.1 mm 6 mps 754 mmHg 87%
    20:00 +8°C° 0.1 mm 6 mps 755 mmHg 87%
    21:00 +8°C° 0.1 mm 5 mps 756 mmHg 88%
    22:00 +7°C° 0 mm 5 mps 757 mmHg 88%
    23:00 +7°C° 0 mm 5 mps 758 mmHg 89%

    21 February, Thursday

    Time Temperature Precipitation Wind Pressure Humidity
    00:00 +7°C° 0 mm 4 mps 758 mmHg 89%
    01:00 +7°C° 0 mm 4 mps 759 mmHg 90%
    02:00 +7°C° 0 mm 4 mps 759 mmHg 91%
    03:00 +7°C° 0 mm 4 mps 759 mmHg 92%
    04:00 +7°C° 0 mm 4 mps 760 mmHg 93%
    05:00 +7°C° 0 mm 4 mps 760 mmHg 94%
    06:00 +8°C° 0 mm 3 mps 760 mmHg 95%
    07:00 +9°C° 0 mm 3 mps 761 mmHg 95%
    08:00 +9°C° 0 mm 3 mps 761 mmHg 95%
    09:00 +9°C° 0 mm 3 mps 762 mmHg 95%
    10:00 +10°C° 0 mm 4 mps 762 mmHg 92%
    11:00 +11°C° 0 mm 4 mps 763 mmHg 89%
    12:00 +12°C° 0 mm 4 mps 763 mmHg 86%
    13:00 +12°C° 0 mm 4 mps 764 mmHg 84%
    14:00 +12°C° 0 mm 4 mps 764 mmHg 82%
    15:00 +12°C° 0 mm 4 mps 764 mmHg 81%
    16:00 +11°C° 0 mm 4 mps 764 mmHg 83%
    17:00 +10°C° 0 mm 3 mps 764 mmHg 86%
    18:00 +9°C° 0 mm 2 mps 765 mmHg 89%
    19:00 +10°C° 0 mm 2 mps 765 mmHg 89%
    20:00 +10°C° 0 mm 2 mps 765 mmHg 90%
    21:00 +10°C° 0 mm 2 mps 766 mmHg 90%
    22:00 +9°C° 0 mm 2 mps 766 mmHg 91%
    23:00 +9°C° 0 mm 3 mps 766 mmHg 91%

    22 February, Friday

    Time Temperature Precipitation Wind Pressure Humidity
    00:00 +9°C° 0 mm 3 mps 766 mmHg 92%
    01:00 +9°C° 0 mm 3 mps 766 mmHg 91%
    02:00 +8°C° 0 mm 3 mps 766 mmHg 90%
    03:00 +8°C° 0 mm 3 mps 767 mmHg 89%
    04:00 +8°C° 0 mm 3 mps 767 mmHg 88%
    05:00 +8°C° 0 mm 3 mps 767 mmHg 87%
    06:00 +8°C° 0 mm 3 mps 767 mmHg 85%
    07:00 +9°C° 0 mm 3 mps 767 mmHg 83%
    08:00 +9°C° 0 mm 3 mps 768 mmHg 80%
    09:00 +10°C° 0 mm 3 mps 768 mmHg 77%
    10:00 +11°C° 0 mm 3 mps 768 mmHg 74%
    11:00 +12°C° 0 mm 4 mps 768 mmHg 70%
    12:00 +13°C° 0 mm 4 mps 769 mmHg 67%
    13:00 +13°C° 0 mm 4 mps 769 mmHg 67%
    14:00 +13°C° 0 mm 4 mps 768 mmHg 67%
    15:00 +13°C° 0 mm 4 mps 768 mmHg 67%
    16:00 +12°C° 0 mm 4 mps 769 mmHg 70%
    17:00 +11°C° 0 mm 3 mps 769 mmHg 74%
    18:00 +10°C° 0 mm 3 mps 769 mmHg 77%
    19:00 +10°C° 0 mm 3 mps 769 mmHg 79%
    20:00 +9°C° 0 mm 3 mps 769 mmHg 81%
    21:00 +9°C° 0 mm 3 mps 769 mmHg 84%
    22:00 +9°C° 0 mm 3 mps 769 mmHg 84%
    23:00 +9°C° 0 mm 3 mps 769 mmHg 85%
    Show more